Regional Weather Roundup
Issued by NWS

Home | Current Version | Previous Version | Graphics & Text | Print | Product List | Glossary On
Versions: 1 2 3 4 5 6 7 8 9 10 11 12 13 14 15 16 17 18 19 20 21 22 23 24 25 26 27 28 29 30 31 32 33 34 35 36 37 38 39 40 41 42 43 44 45 46 47 48 49 50
000
ASUS43 KBIS 271802
RWRND

NORTH DAKOTA REGIONAL WEATHER ROUNDUP
NATIONAL WEATHER SERVICE BISMARCK ND
100 PM CDT TUE SEP 27 2016

NOTE: "FAIR" INDICATES FEW OR NO CLOUDS BELOW 12,000 FEET WITH NO
SIGNIFICANT WEATHER AND/OR OBSTRUCTIONS TO VISIBILITY.


NDZ001>003-009>011-017-271900-
NORTHWEST NORTH DAKOTA

CITY           SKY/WX    TMP DP  RH WIND       PRES   REMARKS
WILLISTON      SUNNY     67  49  52 VRB5      29.96F
6HR MIN TEMP:  37; 6HR MAX TEMP:  67;

MINOT          SUNNY     65  38  36 VRB6      29.96F
MINOT AFB      SUNNY     64  38  37 N3        29.96F
$$

NDZ018>021-031>035-040>046-271900-
SOUTHWEST NORTH DAKOTA

CITY           SKY/WX    TMP DP  RH WIND       PRES   REMARKS
BISMARCK       SUNNY     66  40  38 NW5       29.98F
6HR MIN TEMP:  35; 6HR MAX TEMP:  66;

DICKINSON      SUNNY     70  45  40 W7        29.97F
GARRISON         N/A     67  40  37 VRB3      29.97F
6HR MIN TEMP:  36; 6HR MAX TEMP:  67;

HETTINGER ARPT SUNNY     74  47  38 W7        30.00F
$$

NDZ004>008-012>016-024-026-027-054-271900-
NORTHEAST NORTH DAKOTA

CITY           SKY/WX    TMP DP  RH WIND       PRES   REMARKS
GRAND FORKS    MOSUNNY   56  43  61 NW16G25   29.90F
GRND FRKS AFB  SUNNY     57  43  59 N16       29.89F
DEVILS LAKE    SUNNY     59  37  44 NW15      29.94F
$$

NDZ022-023-025-028>030-036>039-047>053-271900-
SOUTHEAST NORTH DAKOTA

CITY           SKY/WX    TMP DP  RH WIND       PRES   REMARKS
FARGO          SUNNY     61  40  45 NW20      29.88F
6HR MIN TEMP:  40; 6HR MAX TEMP:  62;

JAMESTOWN      SUNNY     63  30  28 N17G25    29.93F
$$





USA.gov is the U.S. government's official web portal to all federal, state and local government web resources and services.